• MPC Preparation (Info)

  • MPEC 2009-Y52 : 2009 DO111

    The following Minor Planet Electronic Circular may be linked-to from your own Web pages, but must not otherwise be redistributed electronically.

    A form allowing access to any MPEC is at the bottom of this page.


    Read MPEC 2009-Y51 Read MPEC 2009-Y53


    M.P.E.C. 2009-Y52                                Issued 2009 Dec. 26, 15:08 UT
    
         The Minor Planet Electronic Circulars contain information on unusual
             minor planets and routine data on comets.  They are published
       on behalf of Commission 20 of the International Astronomical Union by the
              Minor Planet Center, Smithsonian Astrophysical Observatory,
                              Cambridge, MA 02138, U.S.A.
    
                 Prepared using the Tamkin Foundation Computer Network
    
                                  MPC@CFA.HARVARD.EDU
              URL http://www.cfa.harvard.edu/iau/mpc.html  ISSN 1523-6714
    
                                      2009 DO111
    
                               Revision to MPEC 2009-E70
    
    Additional Observations:
         K09DB1O 2C2009 12 09.53415509 01 35.896+25 20 10.01         22.4 R EY052568
         K09DB1O 2C2009 12 09.53951009 01 35.831+25 20 12.22         22.5 R EY052568
         K09DB1O 2C2009 12 19.50576608 56 36.208+26 44 44.20         22.2 R EY052568
         K09DB1O 2C2009 12 19.50964408 56 35.950+26 44 46.79         22.2 R EY052568
    
    Observer details:
    568 Mauna Kea.  Observers M. Micheli, G. T. Elliott, M. Ishiguro, D. J. Tholen.
        Measurer D. J. Tholen.  2.24-m University of Hawaii reflector.
    
    Orbital elements:
    2009 DO111                                               Earth MOID = 0.0024 AU
    Epoch 2010 Jan. 4.0 TT = JDT 2455200.5                  MPC
    M 202.05570              (2000.0)            P               Q
    n   0.91694673     Peri.  273.06898     +0.09281808     +0.99568096
    a   1.0493168      Node     2.25985     -0.89157912     +0.08403180
    e   0.2797636      Incl.    2.98645     -0.44325104     +0.03947244
    P   1.07           H   22.9           G   0.15           U   3
    Residuals in seconds of arc (radar residuals in s.d.)
    090222 691  0.1-  0.3+    090317 A17  0.9-  2.0+    090319 127  0.4-  0.9+
    090222 691  0.2-  0.2+    090317 A13  0.3-  0.7+    090319 127  0.8+  0.3-
    090222 691  0.3-  0.2+    090317 A13  0.2-  0.7+    090319 127  0.5+  0.3+
    090226 691  0.1-  0.4+    090317 A13  0.3-  0.7+    090319 127  1.3+  0.8-
    090226 691  0.3-  0.3+    090317 A13  0.3-  0.8+    090319 127  0.5-  1.6+
    090226 691  0.2-  0.4+    090317 143  0.0-  0.3-    090319 127  0.6-  2.2+
    090302 691  0.4-  0.3+    090317 A13  0.5-  0.7+    090319 127 (3.5-  6.5+)
    090302 691  0.3-  0.2+    090317 A13  0.4-  0.9+    090319 127  0.5-  1.5+
    090302 691  0.2-  0.4+    090317 A13  0.4-  0.7+    090319 127  0.8-  2.3+
    090315 703  0.1-  0.1-    090317 143  0.1-  0.2-    090319 127  0.5+  0.4+
    090315 703  0.1+  0.1+    090317 143  0.0+  0.2-    090319 127  0.6-  1.5+
    090315 703  0.2-  0.2+    090317 970  0.1+  0.3-    090319 J95  0.1-  0.1+
    090315 703  0.2-  0.2+    090317 143  0.0-  0.4-    090319 127  0.6-  2.0+
    090315 H06  0.0-  0.4+    090317 143  0.1-  0.2-    090319 127  0.3-  0.9+
    090315 H06  0.3-  0.3+    090317 970  0.0-  0.2-    090319 127 (0.3- 11.5+)
    090315 703  0.1-  0.0+    090317 143  0.1-  0.3-    090319 127  0.8-  2.5+
    090315 703  0.2-  0.2-    090317 143  0.0+  0.4-    090319 J95  0.2-  0.0+
    090315 703  0.4-  0.2-    090317 A17  0.7-  2.0+    090319 J95  0.4+  0.3-
    090315 703  0.3-  0.1-    090317 A74  0.1+  0.0+    090319 J95  0.4+  0.4-
    090315 900  0.2+  0.4-    090318 A74  0.1+  0.1+    090319 J95  0.3+  0.4-
    090315 900  0.2-  0.0+    090318 A74  0.1-  0.1+    090319 127  1.0-  1.3+
    090315 J95  0.2-  0.0-    090318 A74  0.1-  0.0+    090319 127  0.8-  0.6+
    090315 J95  0.1-  0.0+    090318 A74  0.0-  0.0+    090319 127  0.3-  1.2+
    090315 J95  0.1-  0.0+    090318 A74  0.1-  0.0-    090319 127  0.1+  0.1+
    090316 291  0.4-  0.2+    090318 510  0.2-  0.1-    090319 127  0.3-  0.8+
    090316 291  0.5-  0.1+    090318 510  0.0-  0.2+    090319 127  0.8-  1.7+
    090316 291  0.2-  0.0-    090318 510  0.1+  0.1+    090319 127  0.4+  0.4-
    090316 118  0.2-  0.1-    090318 H45  0.1-  0.5+    090319 127  0.0+  0.7+
    090316 118  0.2-  0.0-    090318 H45  0.2-  0.4+    090319 J77 (1.5-  2.5+)
    090316 560  0.0+  0.4+    090318 H45  0.1-  0.0+    090319 J77 (3.5-  4.4+)
    090316 560  0.1+  0.5+    090318 H45  0.1-  0.3+    090319 J77 (3.8-  4.5+)
    090316 560  0.2+  0.2+    090318 H45  0.1-  0.3+    090319 J77 (2.9-  3.7+)
    090316 118  0.1-  0.2-    090318 H45  0.2-  0.3+    090320 510  0.1-  0.2-
    090316 118  0.1-  0.1-    090318 H45  0.1-  0.6+    090320 510  0.1-  0.1-
    090316 118  0.1-  0.1-    090318 H45  0.0-  0.2+    090320 510  0.2-  0.1+
    090316 118  0.1-  0.3-    090318 H45  0.1-  0.3+    090320 510  0.2-  0.1+
    090316 118  0.1-  0.1-    090318 H45  0.0+  0.2+    090320 H55  1.0+  0.8-
    090316 118  0.1-  0.0+    090318 A17  0.1+  0.2-    090320 H55  0.4-  0.2+
    090316 118  0.1-  0.0-    090318 A17  0.0-  0.3-    090320 H55  0.1+  0.4+
    090316 118  0.1+  0.1-    090318 A17  0.3+  0.8-    090320 H55  0.5+  1.5-
    090316 J95  0.2-  0.2-    090318 A17  0.0-  1.0-    090320 H55  1.2+  1.2-
    090316 J95  0.1-  0.0+    090318 970  0.0-  0.4-    090320 H55  0.1-  0.3-
    090316 J27  0.1+  0.1-    090318 595  0.2+  0.3-    090320 H55  0.2-  0.3-
    090316 J27  0.2+  0.4-    090318 595  0.3+  0.5-    090320 H55  0.3+  0.1+
    090316 J27  0.1-  0.3-    090318 595  0.5+  0.6-    090320 H55  0.1+  0.6-
    090317 A53  0.4+  0.1+    090318 127  0.2+  0.3+    090320 H55  0.3+  0.4-
    090317 A53  0.1+  0.0-    090318 127  0.1+  0.5+    090320 H55  0.6+  1.5-
    090317 A53  0.2+  0.2+    090318 127  1.5-  0.7+    090320 H55  0.5-  0.4+
    090317 A53  0.5+  0.4+    090318 127  0.4+  0.5-    090320 H55  0.7+  0.6-
    090317 A53  0.4+  0.1+    090318 127  1.7+  0.6-    090320 H55  0.6+  0.6-
    090317 204  0.1-  0.0+    090318 127  0.7+  0.9-    090320 H55  0.4-  0.2-
    090317 204  0.0+  0.0-    090318 127  2.3+  0.9-    090320 H55  0.9+  0.2+
    090317 204  0.1-  0.1-    090318 127  0.6+  0.6+    090320 H55  0.2-  0.5+
    090317 204  0.1-  0.0-    090318 970  0.0+  0.1-    090320 H55  0.7+  0.9-
    090317 204  0.1+  0.1-    090318 970  0.1-  0.8+    090320 H25  0.1+  0.3+
    090317 J95  0.1-  0.1-    090318 J27  0.0+  0.4-    090320 H25  0.3+  0.1+
    090317 J95  0.2-  0.2-    090318 J27  0.7-  0.2-    090320 H25  0.4+  0.2+
    090317 H45  0.0+  0.0+    090319 J27  0.0+  0.3-    090320 H25  0.7+  0.0-
    090317 H45  0.1+  0.1-    090319 J95  0.2+  0.8-    090320 H25  0.1+  0.1-
    090317 H45  0.1+  0.1+    090319 J95  0.1+  0.8-    090320 H25  0.5+  0.2-
    090317 H45  0.0-  0.0-    090319 J95  0.1+  0.8-    090320 H25  0.8+  0.4+
    090317 H45  0.0-  0.0-    090319 J95  0.1+  0.5-    090320 H25  0.7+  0.1+
    090317 H45  0.1-  0.2-    090319 673  0.7-  1.0+    090320 H25  0.4+  0.2+
    090317 H45  0.1-  0.1-    090319 673  0.0-  0.4-    090320 H25  0.3+  0.1-
    090317 H45  0.1+  0.1-    090319 673  0.6+  0.7-    090320 H25  0.4+  0.3+
    090317 H45  0.1-  0.0+    090319 673  0.5+  0.9-    090320 H25  0.1-  0.3+
    090317 H45  0.1-  0.1-    090319 673  0.8+  1.5-    090320 H25  0.4+  0.5+
    090317 H55  0.2+  0.0-    090319 H25  0.4+  1.2-    090320 H25  0.2+  0.3+
    090317 H55  0.1+  0.1-    090319 H25  0.4+  1.1-    090320 H25  0.1+  0.2+
    090317 H55  0.3+  0.2-    090319 H25  0.4+  0.6-    090320 H25  0.3+  0.4+
    090317 291  0.7-  0.7+    090319 H25  0.4+  0.9-    090320 H25  0.1-  0.3+
    090317 291  0.5-  1.1+    090319 H25  0.0+  0.9-    090320 H25  0.1-  0.1+
    090317 291  0.1-  0.4+    090319 H25  0.2+  1.0-    090320 H25  0.0-  0.0-
    090317 900  0.5-  0.1+    090319 H25  0.2+  1.4-    090320 H25  0.1-  0.4+
    090317 900  0.1-  0.3-    090319 H25  0.6+  1.0-    090320 H25  0.1+  0.3-
    090317 970  0.2-  0.3-    090319 H25  0.3+  1.3-    090320 H25  0.3-  0.2+
    090317 B84  0.2+  0.1-    090319 H25  0.3+  0.9-    090320 H25  0.4-  0.1+
    090317 B84  0.3+  0.0-    090319 H25  0.6+  1.0-    090320 H25  0.3+  0.0+
    090317 B84  0.1+  0.0+    090319 H25  0.2+  0.8-    090320 H25  0.3+  0.1-
    090317 970  0.1+  0.3-    090319 J95  0.2+  0.5-    090320 H25  0.4+  0.1+
    090317 A17  0.6-  1.3+    090319 J95  0.2+  0.1-    090320 H25  0.1+  0.1+
    090317 970  0.2-  0.2+    090319 B84  0.2-  0.1-    090320 H25  0.2+  0.3-
    090317 970  0.1+  0.1-    090319 B84  0.3-  0.2+    090320 H25  0.3+  0.1-
    090317 B84  0.2+  0.4-    090319 B84  0.5+  1.4-    090321 253/252D 0.207-
    090317 B84  0.1+  0.1-    090319 B84  0.3-  0.3+    091209 568  0.1+  0.4+
    090317 B84  0.2+  0.3-    090319 B84  0.6-  0.9+    091209 568  0.1+  0.4+
    090317 B84  0.4+  0.4-    090319 B84  1.1-  1.9+    091219 568  0.3+  0.4+
    090317 B84  0.1+  0.0-    090319 B84  0.1+  0.3-    091219 568  0.3+  0.5+
    090317 B84  0.3+  0.2-    090319 127 (1.5-  2.7+)
    090317 970  0.0-  0.1-    090319 127  0.1-  0.8+
    
    Ephemeris:
    2009 DO111               a,e,i = 1.05, 0.28, 3                   q = 0.7558
    Date    TT    R. A. (2000) Decl.     Delta      r     Elong.  Phase     V
    2009 12 25    08 49.73   +27 46.1    0.409    1.338   144.7    25.1    22.7
    2010 01 04    08 28.59   +29 53.9    0.365    1.330   158.6    15.7    22.2
    2010 01 14    07 56.65   +31 50.9    0.337    1.316   169.0     8.2    21.7
    2010 01 24    07 19.10   +32 49.8    0.329    1.298   160.1    14.9    21.9
    2010 02 03    06 45.10   +32 32.8    0.338    1.276   144.6    26.6    22.3
    2010 02 13    06 21.19   +31 25.1    0.360    1.249   130.1    37.2    22.7
    2010 02 23    06 08.85   +30 00.4    0.388    1.219   117.6    46.0    23.0
    
    Gareth V. Williams           (C) Copyright 2009 MPC           M.P.E.C. 2009-Y52
    

    Read MPEC 2009-Y51 Read MPEC 2009-Y53


    MPEC number:

    Enter an MPEC number in one of the following forms:

    • 1997-B01 (the full form)
    • J97B01 (the packed version of the full form)
    • B01 (the abbreviated form)